Regional Weather Roundup
Issued by NWS

Home | Current Version | Previous Version | Text Only | Print | Product List | Glossary On
Versions: 1 2 3 4 5 6 7 8 9 10 11 12 13 14 15 16 17 18 19 20 21 22 23 24 25 26 27 28 29 30 31 32 33 34 35 36 37 38 39 40 41 42 43 44 45 46 47 48 49 50
000
ASUS43 KMKX 220500
RWRWI

WISCONSIN REGIONAL WEATHER ROUNDUP
NATIONAL WEATHER SERVICE MILWAUKEE/SULLIVAN WI
1200 AM CDT TUE AUG 22 2017

NOTE: "FAIR" INDICATES FEW OR NO CLOUDS BELOW 12,000 FEET WITH NO
SIGNIFICANT WEATHER AND/OR OBSTRUCTIONS TO VISIBILITY.

WIZ001-002-006>008-014>016-023>028-220600-
NORTHWEST WISCONSIN

CITY           SKY/WX    TMP DP  RH WIND       PRES   REMARKS
SUPERIOR ARPT  LGT RAIN  59  58  97 N7        29.84R
ASHLAND        HVY RAIN  59  57  93 NW9       29.82R FOG
HAYWARD        CLOUDY    68  63  84 SW8       29.81F
SIREN          MOCLDY    66  64  91 W7        29.83S
CUMBERLAND     CLOUDY    64  63  94 W6        29.84F
RICE LAKE      CLOUDY    66  64  92 SW7       29.86S
CHETEK         CLOUDY    65  64  94 SW6       29.85S
LADYSMITH      CLOUDY    66  64  91 SW6       29.86F
EAU CLAIRE     NOT AVBL
MENOMONIE      CLOUDY    66  64  91 SW7       29.86F
NEW RICHMOND   CLOUDY    67  63  86 W9        29.86S
OSCEOLA        CLOUDY    67  67 100 W7        29.88R
$$

WIZ003>005-009-010-017-018-220600-
NORTH CENTRAL WISCONSIN

CITY           SKY/WX    TMP DP  RH WIND       PRES   REMARKS
MANITOWISH WTR CLOUDY    66  66 100 SW8       29.81F
ARBOR VITAE    CLOUDY    67  66  95 SW5       29.81F
WOODRUFF       CLOUDY    67  66  95 SW5       29.81F
RHINELANDER    MOCLDY    66  66 100 W10       29.83F
EAGLE RIVER    CLOUDY    66  66 100 SW8       29.81F
LAND O LAKES   PTCLDY    66  66 100 SW3       29.82F
PHILLIPS       CLOUDY    66  65  95 SW7       29.83F
TOMAHAWK         N/A     65  64  96 CALM      29.83F
MEDFORD        CLOUDY    64  63  96 W5        29.86S
MERRILL        MOCLDY    64  64 100 W6        29.84F
$$

WIZ029-030-035-036-043>047-220600-
CENTRAL WISCONSIN

CITY           SKY/WX    TMP DP  RH WIND       PRES   REMARKS
WAUSAU         MOCLDY    67  62  84 W10       29.82S
MOSINEE        PTCLDY    64  63  94 SW8       29.85S
MARSHFIELD     CLOUDY    66  62  87 W10       29.86R
STEVENS POINT  PTCLDY    65  64  97 SW3       29.86S
WAUPACA        CLOUDY    72  67  85 W5        29.85R
WAUTOMA        CLOUDY    68  66  93 W6        29.87R
WISC RAPIDS    PTCLDY    65  64  97 SW5       29.87S
CAMP DOUGLAS   NOT AVBL
$$

WIZ011>013-019>022-031-037>040-048>050-220600-
NORTHEAST WISCONSIN

CITY           SKY/WX    TMP DP  RH WIND       PRES   REMARKS
ANTIGO         MOCLDY    64  64  99 W6        29.84F
SHAWANO        CLOUDY    72  65  81 W3        29.82F
OCONTO         CLOUDY    70  66  88 W6        29.79S
STURGEON BAY   LGT RAIN  72  69  90 W8        29.82R
GREEN BAY      CLOUDY    72  69  90 W10       29.82R
MANITOWOC      NOT AVBL
APPLETON       CLOUDY    70  66  88 W9        29.82S
CLINTONVILLE   CLOUDY    70  63  78 SW6       29.83F
OSHKOSH        CLOUDY    71  66  84 SW3       29.83R
$$

WIZ032>034-041-042-053>061-220600-
SOUTHWEST WISCONSIN

CITY           SKY/WX    TMP DP  RH WIND       PRES   REMARKS
LA CROSSE      CLOUDY    68  65  90 W6        29.90R
SPARTA         CLOUDY    61  61 100 CALM      29.90S
VIROQUA        CLOUDY    62  62 100 CALM      29.91F
BOSCOBEL       CLOUDY    68  65  90 CALM      29.89R
PRAIRIE DU CHI PTCLDY    66  64  91 NW7       29.89R
PLATTEVILLE    CLOUDY    69  69 100 SW7       29.87S
$$

WIZ056-057-062-063-064-067-068-220600-
SOUTH CENTRAL WISCONSIN

CITY           SKY/WX    TMP DP  RH WIND       PRES   REMARKS
REEDSBURG      MOCLDY    66  66 100 NW6       29.88R
BARABOO/DELLS  PTCLDY    68  64  89 NW9       29.88R
LONE ROCK      NOT AVBL
MINERAL POINT  CLOUDY    70  70 100 SW8       29.86S
MADISON        CLOUDY    72  68  87 W7        29.85R
MIDDLETON      CLOUDY    73  71  95 SW9       29.84R
WATERTOWN      CLOUDY    71  71 100 S7        29.83S
MONROE         CLOUDY    70  68  94 S10       29.85F
JANESVILLE     CLOUDY    72  72 100 S7        29.85F
$$

WIZ051-052-058>065-066-070>072-220600-
SOUTHEAST WISCONSIN

CITY           SKY/WX    TMP DP  RH WIND       PRES   REMARKS
MILWAUKEE      CLOUDY    76  70  82 SW13      29.83F
WAUKESHA       CLOUDY    70  66  88 S10       29.85F
MILWAUKEE/TIMM MOCLDY    72  64  78 S9        29.83F
RACINE         CLOUDY    75  70  84 SW9       29.86F
KENOSHA        CLOUDY    75  69  81 SW9       29.86F
FOND DU LAC    CLOUDY    72  66  81 SW6       29.84R
SHEBOYGAN      PTCLDY    71  70  96 SW8       29.82F
WEST BEND      CLOUDY    72  68  88 SW8       29.83F
JUNEAU         CLOUDY    70  67  89 S9        29.83F
$$

LSZ147-162-220600-
LAKE SUPERIOR

STATION/POSITION TIME  TEMP    WIND        PRES    WAVE
                       AIR SEA DIR/SP/G            HT/PER
                 (UTC) (F)     (DEG/KT/KT) (MB)    (FT/S)
W MID LAKE BUOY  0350   59 60  350/  8/ 10 1009.4F   0
DEVILS ISLAND    0400   59     360/ 18/ 20 1009.7S
PORT WING        0340   61     320/  5/  8 1009.8S
SAXON HARBOR     0440   60     170/  2/  3 1008.1F
$$

LMZ867-665-643>646-220600-
LAKE MICHIGAN

STATION/POSITION TIME  TEMP    WIND        PRES    WAVE
                       AIR SEA DIR/SP/G            HT/PER
                 (UTC) (F)     (DEG/KT/KT) (MB)    (FT/S)
S GREEN BAY BUOY 0430   73 72  220/  8/ 12 1008.8F
N MID LAKE BUOY  0350   70 68  200/ 12/ 14 1009.6F   2/ 4
NORTHPORT PIER   0440   70     190/  1/  5 1008.5F
KEWAUNEE LAKESHO 0430   67     180/  6/  7 1008.4F
SHEBOYGAN LAKESH 0400   73     210/ 12/ 14 1009.3F
PORT WASHINGTON  0430   73     200/  3/  6 1010.8F
ATWATER BUOY     0309   75 70  220/ 10/ 12 1012.1F
MILWAUKEE LAKESH 0430   76     230/ 15/ 18   N/A
S MID LAKE BUOY  0350   74 72  220/ 12/ 12 1012.0F   1/ 3
KENOSHA   LAKESH 0400   77     230/ 11/ 14 1011.5
$$

TC  - TEMPERATURE IN CELSIUS
VSB - VISIBILITY IN STATUTE MILES
WCI - WIND CHILL INDEX
HX  - HEAT INDEX





USA.gov is the U.S. government's official web portal to all federal, state and local government web resources and services.